Location: Dammartin
(48.9032°N, 1.6195°E)
Time: 19:54:00
(UTC+00:00)

BlueWalker 3 - Pass Details

Date: 24 April 2024
Orbit: 482 x 494 km, 53.2° (Epoch: 22 May)

Event Time Altitude Azimuth Distance (km) Brightness Sun altitude
Rises 21:22:04 0° 286° (WNW) 2,579 6.4 -19.6°
Reaches altitude 10° 21:24:20 10° 293° (WNW) 1,698 5.5 -19.9°
Maximum altitude 21:28:01 44° 7° (N) 699 2.9 -20.2°
Enters shadow 21:29:46 26° 64° (ENE) 1,014 3.3 -20.4°
